Погода в Гулях

Россия / Республика Ингушетия     42°48′41″N   44°48′14″E
В апреле 2022 года жителям России запретили посещать сайт meteo.paraplan.net по решению Генеральной прокуратуры. Аудитория сайта уменьшилась в 10 раз. Владельцы сайта не видят смысла в поддержке погодного сервера в таких условиях. Сайт будет закрыт в октябре.
темп.,
°C
ветер,
м/с
пор.,
м/с
влажн.,
%
обл.,
%
осадки,
мм/ч
давл.,
гПа
погр.,
м
25 сентября, вс
вс2500:000ююз229879 0.3 1019108
03:00−2ююз119582 0.3 102129
06:00−1ссв019796 0.1 1021280
09:00+2ссв028863 0.2 1020470
12:00+4юв128648 0.1 1019449
15:00+6св128054 0.1 1019622
18:00+1ю239645 0.0 102299
21:000ю558924 0.0 1025226
26 сентября, пн
пн2600:00−1ю68853 0.0 1027135
03:00−1ю67802 0.0 1026115
06:000ю57873 0.0 1025112
09:00+6ю45680 0.0 1021384
12:00+10ю34530 0.0 1020700
15:00+10ю23550 0.0 1019694
18:00+4ю45830 0.0 102177
21:00+3ю568231 0.0 102294
27 сентября, вт
вт2700:00+2ю66674 0.0 102181
03:00+2ю66590 0.0 102071
06:00+3ю55514 0.0 101958
09:00+12ю34355 0.0 1015367
12:00+15ю133291 0.0 1013887
15:00+13ю233979 0.0 1013724
18:00+7ююз5561100 0.0 101666
21:00+7ю6744100 0.0 101688
28 сентября, ср
ср2800:00+6ююз674096 0.0 101596
03:00+6ю684025 0.0 101492
06:00+6ююз553981 0.0 101457
09:00+14ююз2332100 0.0 1011313
12:00+17сз0326100 0.0 10101325
15:00+15с122993 0.0 1011790
18:00+8ю225282 0.0 101314
21:00+8ююз443864 0.0 101440
29 сентября, чт
чт2900:00+7ююз443666 0.0 101443
03:00+7ююз323831 0.0 101422
06:00+6ююз3242100 0.0 101525
09:00+12с13475 0.0 1013603
12:00+14с235011 0.0 10131128
15:00+9с437999 0.1 1016608
18:00+7с2392100 0.1 1019238
21:00+6ссв129192 0.3 1020147